Location: Street
(51.1247°N, 2.7429°W)
Time: 10:27:53
(UTC+01:00)

STRAND 1 - Pass Details

Date: 24 April 2024
Orbit: 766 x 777 km, 98.4° (Epoch: 29 May)

Event Time Altitude Azimuth Distance (km) Brightness Sun altitude
Rises 04:31:44 0° 101° (ESE) 3,233 ? -12.3°
Reaches altitude 10° 04:35:25 10° 74° (ENE) 2,311 ? -11.8°
Maximum altitude 04:37:29 13° 50° (NE) 2,141 ? -11.6°
Drops below altitude 10° 04:39:32 10° 25° (NNE) 2,317 ? -11.3°
Sets 04:43:13 0° 358° (N) 3,249 ? -10.8°
